�N����,����,�~����,�C��,���x,�C��,����,���ϕ���,�ő�u�ԕ���,�ő厞����,���˗�,�I�_���x,�n�����x,�ő啗���N��,DTYPE
"22/04/05","00:10",0.0,8.1,76.2,1019.7,327.3,3.7,5.4,336.6,0.00,4.2,11.8,"00:09:20",1
"22/04/05","00:20",0.0,8.0,76.4,1019.9,316.2,3.6,5.4,329.8,0.00,4.1,11.8,"00:12:56",1
"22/04/05","00:30",0.0,7.6,76.8,1019.9,334.6,3.0,4.0,326.0,0.00,3.8,11.8,"00:20:08",1
"22/04/05","00:40",0.0,7.3,77.7,1019.7,330.0,2.7,4.4,342.7,0.00,3.7,11.7,"00:31:04",1
"22/04/05","00:50",0.0,7.4,78.3,1019.4,329.5,3.2,5.0,329.7,0.00,3.9,11.7,"00:45:28",1
"22/04/05","01:00",0.0,7.3,78.6,1019.7,322.6,2.7,4.7,325.9,0.00,3.9,11.5,"00:54:08",1
"22/04/05","01:10",0.0,6.9,79.4,1019.2,313.0,2.5,4.3,312.6,0.00,3.6,11.6,"01:09:28",1
"22/04/05","01:20",0.0,6.5,80.2,1019.0,332.3,2.2,3.5,315.3,0.00,3.4,11.2,"01:10:48",1
"22/04/05","01:30",0.0,6.9,81.0,1019.4,303.6,3.1,5.1,327.6,0.00,3.9,11.2,"01:21:36",1
"22/04/05","01:40",0.0,6.9,81.5,1019.4,291.7,2.6,3.7,294.8,0.00,4.0,11.4,"01:30:56",1
"22/04/05","01:50",0.0,6.9,81.7,1019.2,322.7,3.7,5.6,322.0,0.00,4.0,11.4,"01:42:24",1
"22/04/05","02:00",0.0,6.8,82.2,1019.0,317.7,3.4,5.4,318.1,0.00,4.0,11.4,"01:55:44",1
"22/04/05","02:10",0.0,6.7,82.4,1018.7,325.0,2.3,4.9,310.7,0.00,4.0,11.2,"02:00:40",1
"22/04/05","02:20",0.0,6.4,82.8,1019.0,321.6,2.3,3.7,333.5,0.00,3.7,11.4,"02:14:16",1
"22/04/05","02:30",0.0,6.0,83.3,1018.7,332.1,2.1,2.8,327.2,0.00,3.4,11.3,"02:27:28",1
"22/04/05","02:40",0.0,5.5,84.1,1018.7,339.5,2.1,3.4,341.5,0.00,3.1,11.2,"02:37:52",1
"22/04/05","02:50",0.0,5.5,85.1,1018.5,320.7,2.0,3.2,334.0,0.00,3.2,11.3,"02:48:28",1
"22/04/05","03:00",0.0,5.8,85.7,1019.0,315.7,2.2,3.5,311.3,0.00,3.6,11.3,"02:50:08",1
"22/04/05","03:10",0.0,5.8,86.0,1018.5,338.3,1.3,2.4,325.4,0.00,3.7,11.0,"03:00:26",1
"22/04/05","03:20",0.0,5.6,86.5,1018.5,337.7,1.7,2.5,317.4,0.00,3.6,11.1,"03:11:48",1
"22/04/05","03:30",0.0,5.1,86.7,1018.5,319.3,1.6,3.3,325.2,0.00,3.1,11.1,"03:21:30",1
"22/04/05","03:40",0.0,4.9,87.2,1018.7,306.8,1.5,3.1,311.4,0.00,3.0,11.0,"03:31:44",1
"22/04/05","03:50",0.0,4.7,87.5,1018.5,326.6,1.8,2.4,329.3,0.00,2.8,11.1,"03:47:00",1
"22/04/05","04:00",0.0,4.8,88.1,1018.7,320.9,1.7,2.2,336.1,0.00,3.0,11.0,"03:50:56",1
"22/04/05","04:10",0.0,5.0,88.6,1018.7,331.9,1.6,2.0,321.0,0.00,3.3,10.8,"04:00:24",1
"22/04/05","04:20",0.0,5.5,88.8,1018.7,331.3,2.7,3.6,342.4,0.00,3.8,10.9,"04:11:24",1
"22/04/05","04:30",0.0,5.7,88.7,1018.7,336.0,3.4,4.9,328.4,0.00,4.0,10.8,"04:27:32",1
"22/04/05","04:40",0.0,5.8,88.7,1019.0,342.8,2.8,4.4,344.5,0.00,4.1,10.9,"04:31:52",1
"22/04/05","04:50",0.0,6.0,88.5,1019.2,341.0,2.5,4.5,339.7,0.00,4.3,10.8,"04:46:40",1
"22/04/05","05:00",0.0,6.0,88.2,1019.2,333.2,2.6,4.8,338.7,0.00,4.2,10.8,"04:56:16",1
"22/04/05","05:10",0.0,6.3,87.8,1019.0,322.7,4.7,6.8,340.8,0.00,4.5,10.7,"05:07:38",1
"22/04/05","05:20",0.0,6.4,87.0,1018.5,320.3,5.2,7.9,325.8,0.00,4.4,10.7,"05:12:48",1
"22/04/05","05:30",0.0,6.2,86.5,1018.7,328.4,4.6,6.6,320.7,0.00,4.2,10.6,"05:21:52",1
"22/04/05","05:40",0.0,6.0,86.4,1019.0,327.6,4.6,6.0,313.1,0.00,3.9,10.6,"05:30:48",1
"22/04/05","05:50",0.0,6.0,86.6,1019.2,329.8,4.9,7.3,325.6,0.00,4.0,10.3,"05:46:40",1
"22/04/05","06:00",0.0,6.1,86.6,1019.2,328.1,5.0,7.4,327.9,0.00,4.1,10.6,"05:58:00",1
"22/04/05","06:10",0.0,6.3,86.1,1019.7,324.4,5.4,7.5,340.0,0.00,4.2,10.3,"06:07:42",1
"22/04/05","06:20",0.0,6.3,85.8,1019.7,333.0,5.0,6.8,342.8,0.00,4.1,10.3,"06:18:48",1
"22/04/05","06:30",0.0,6.3,85.8,1019.4,329.5,4.2,6.0,338.8,0.00,4.1,10.5,"06:20:08",1
"22/04/05","06:40",0.0,6.3,85.8,1019.2,328.9,5.1,7.8,336.2,0.00,4.1,10.2,"06:36:08",1
"22/04/05","06:50",0.0,6.3,85.9,1019.4,329.4,4.9,8.0,331.8,0.01,4.2,10.6,"06:40:24",1
"22/04/05","07:00",0.0,6.4,86.1,1019.7,332.9,3.4,5.7,324.6,0.02,4.3,10.1,"06:58:00",1
"22/04/05","07:10",0.0,6.8,86.1,1019.4,336.0,3.7,5.9,341.3,0.03,4.7,10.4,"07:09:52",1
"22/04/05","07:20",0.0,7.3,85.7,1019.4,326.7,4.0,6.3,324.3,0.05,5.1,10.4,"07:14:08",1
"22/04/05","07:30",0.0,7.7,84.7,1019.9,335.1,3.7,5.4,332.3,0.07,5.3,10.5,"07:29:38",1
"22/04/05","07:40",0.0,8.4,83.4,1019.9,327.0,3.7,5.1,352.6,0.10,5.8,10.2,"07:31:44",1
"22/04/05","07:50",0.0,9.2,81.7,1019.9,299.4,2.2,5.4,314.1,0.12,6.3,10.1,"07:44:32",1
"22/04/05","08:00",0.0,9.8,79.6,1019.9,244.2,1.3,2.9,254.5,0.15,6.5,10.4,"07:50:16",1
"22/04/05","08:10",0.0,10.0,77.6,1020.4,238.7,1.5,2.9,249.7,0.17,6.3,10.3,"08:02:40",1
"22/04/05","08:20",0.0,10.2,75.8,1020.1,293.9,2.2,3.7,324.0,0.20,6.2,10.3,"08:18:56",1
"22/04/05","08:30",0.0,10.5,74.5,1020.1,299.4,2.5,3.6,317.5,0.23,6.2,10.2,"08:24:24",1
"22/04/05","08:40",0.0,11.3,72.9,1020.1,313.1,1.8,3.7,324.8,0.26,6.7,10.3,"08:31:52",1
"22/04/05","08:50",0.0,11.8,69.8,1020.1,302.9,1.7,4.7,315.6,0.29,6.5,10.3,"08:45:36",1
"22/04/05","09:00",0.0,12.2,68.2,1020.1,316.1,2.0,3.6,314.3,0.32,6.6,10.4,"08:58:00",1
"22/04/05","09:10",0.0,12.7,68.4,1019.9,283.2,1.6,2.8,318.1,0.35,7.1,10.5,"09:00:48",1
"22/04/05","09:20",0.0,13.2,65.9,1019.9,162.1,1.2,2.7,126.7,0.37,7.0,10.3,"09:14:24",1
"22/04/05","09:30",0.0,13.7,64.2,1019.7,112.0,1.2,2.6,117.2,0.40,7.1,10.5,"09:27:36",1
"22/04/05","09:40",0.0,13.7,63.1,1019.7,179.8,1.7,2.8,186.0,0.42,6.9,10.7,"09:36:56",1
"22/04/05","09:50",0.0,14.2,62.7,1019.9,132.2,1.2,2.8,105.6,0.44,7.2,10.7,"09:42:08",1
"22/04/05","10:00",0.0,14.5,61.4,1019.9,198.1,1.3,2.9,243.0,0.47,7.2,10.7,"09:50:02",1
"22/04/05","10:10",0.0,14.6,60.3,1019.7,257.7,1.6,3.6,242.2,0.48,7.0,10.8,"10:05:44",1
"22/04/05","10:20",0.0,14.9,60.3,1019.4,213.0,1.5,3.2,181.3,0.50,7.3,10.9,"10:13:36",1
"22/04/05","10:30",0.0,15.6,57.7,1019.7,209.6,0.8,2.4,216.9,0.52,7.3,10.9,"10:21:12",1
"22/04/05","10:40",0.0,15.9,55.6,1019.0,158.2,1.1,2.6,157.1,0.54,7.1,11.0,"10:36:08",1
"22/04/05","10:50",0.0,16.4,53.7,1019.0,166.2,1.1,1.9,134.1,0.55,7.0,11.0,"10:44:16",1
"22/04/05","11:00",0.0,16.3,57.4,1019.0,158.3,2.0,4.7,127.4,0.57,7.9,11.2,"10:57:52",1
"22/04/05","11:10",0.0,16.0,57.3,1018.7,124.2,2.6,5.1,128.4,0.57,7.6,11.2,"11:02:00",1
"22/04/05","11:20",0.0,16.4,56.3,1018.5,159.2,2.0,4.3,124.5,0.57,7.7,11.3,"11:13:12",1
"22/04/05","11:30",0.0,16.7,55.8,1018.7,159.7,2.1,5.4,126.1,0.59,7.9,11.7,"11:20:40",1
"22/04/05","11:40",0.0,16.9,53.3,1018.5,159.0,1.8,4.7,124.5,0.60,7.4,11.6,"11:34:32",1
"22/04/05","11:50",0.0,17.0,53.6,1018.5,123.9,2.2,4.5,114.8,0.61,7.6,11.8,"11:42:16",1
"22/04/05","12:00",0.0,17.9,52.6,1017.8,201.3,1.5,4.9,193.2,0.61,8.1,11.6,"11:53:28",1
"22/04/05","12:10",0.0,18.0,52.7,1017.5,136.3,2.1,4.7,144.4,0.62,8.2,11.9,"12:07:28",1
"22/04/05","12:20",0.0,18.0,52.9,1017.3,156.6,2.5,4.0,187.5,0.62,8.3,12.0,"12:12:00",1
"22/04/05","12:30",0.0,18.0,50.3,1017.1,127.2,2.3,4.3,130.9,0.62,7.6,12.2,"12:22:40",1
"22/04/05","12:40",0.0,18.5,50.9,1016.6,184.1,2.2,4.1,122.3,0.62,8.2,12.2,"12:31:12",1
"22/04/05","12:50",0.0,18.8,48.6,1016.6,150.5,1.8,3.3,236.3,0.62,7.8,12.4,"12:43:52",1
"22/04/05","13:00",0.0,19.0,48.0,1016.4,130.8,1.8,4.0,117.9,0.62,7.8,12.6,"12:52:32",1
"22/04/05","13:10",0.0,19.0,48.8,1016.1,136.2,2.2,3.6,115.7,0.61,8.0,12.7,"13:02:48",1
"22/04/05","13:20",0.0,19.3,45.7,1016.1,159.4,1.8,5.7,123.2,0.60,7.3,12.8,"13:15:20",1
"22/04/05","13:30",0.0,19.6,46.9,1016.1,142.8,2.2,4.1,185.7,0.60,8.0,13.0,"13:21:28",1
"22/04/05","13:40",0.0,20.4,44.6,1015.4,194.4,1.3,4.9,238.1,0.59,8.0,13.0,"13:34:32",1
"22/04/05","13:50",0.0,20.1,44.0,1015.6,127.6,2.5,4.8,122.4,0.58,7.5,13.1,"13:45:36",1
"22/04/05","14:00",0.0,20.1,43.7,1014.7,133.8,2.2,4.8,158.2,0.57,7.4,13.3,"13:58:32",1
"22/04/05","14:10",0.0,20.6,43.9,1014.7,143.9,1.8,4.0,127.8,0.55,7.9,13.5,"14:03:12",1
"22/04/05","14:20",0.0,20.4,41.6,1014.9,143.7,2.2,4.7,117.5,0.51,7.0,13.4,"14:14:32",1
"22/04/05","14:30",0.0,20.8,41.3,1014.7,179.0,2.2,4.2,196.5,0.50,7.2,13.6,"14:26:00",1
"22/04/05","14:40",0.0,20.5,41.1,1014.7,190.5,2.8,5.1,235.2,0.51,6.9,13.8,"14:35:28",1
"22/04/05","14:50",0.0,21.0,38.6,1014.2,226.1,1.5,3.5,202.3,0.49,6.4,13.7,"14:49:28",1
"22/04/05","15:00",0.0,21.5,38.4,1014.2,185.9,1.7,4.5,176.2,0.47,6.8,13.8,"14:59:44",1
"22/04/05","15:10",0.0,21.8,38.5,1013.8,187.0,1.5,4.1,235.6,0.45,7.1,14.0,"15:05:36",1
"22/04/05","15:20",0.0,21.3,38.2,1013.8,188.9,2.5,4.4,186.0,0.43,6.5,14.2,"15:11:52",1
"22/04/05","15:30",0.0,21.3,40.0,1014.0,184.7,2.3,4.0,222.9,0.38,7.2,14.1,"15:23:04",1
"22/04/05","15:40",0.0,21.2,39.0,1014.0,156.6,2.6,5.0,153.6,0.37,6.7,14.4,"15:32:40",1
"22/04/05","15:50",0.0,21.0,37.4,1014.0,168.6,2.6,5.0,145.0,0.34,6.0,14.5,"15:47:44",1
"22/04/05","16:00",0.0,20.9,38.5,1013.8,169.7,2.7,5.2,158.4,0.30,6.3,14.5,"15:55:52",1
"22/04/05","16:10",0.0,20.5,39.0,1013.5,162.9,2.6,4.3,127.8,0.22,6.1,14.4,"16:05:28",1
"22/04/05","16:20",0.0,20.8,39.1,1013.5,176.4,2.8,4.8,157.1,0.28,6.4,14.6,"16:17:52",1
"22/04/05","16:30",0.0,20.9,38.7,1013.5,174.1,2.5,5.4,151.8,0.26,6.4,14.6,"16:20:40",1
"22/04/05","16:40",0.0,20.7,38.9,1013.5,184.8,2.8,4.1,173.9,0.23,6.3,14.6,"16:34:48",1
"22/04/05","16:50",0.0,20.9,38.5,1013.5,200.5,2.0,4.0,236.6,0.20,6.3,14.8,"16:48:48",1
"22/04/05","17:00",0.0,20.6,39.0,1013.5,193.8,1.7,3.5,179.3,0.13,6.2,14.6,"16:56:32",1
"22/04/05","17:10",0.0,20.1,39.3,1013.8,180.4,2.3,4.8,133.1,0.10,5.9,14.6,"17:08:40",1
"22/04/05","17:20",0.0,20.6,39.4,1013.8,196.9,1.6,2.7,181.7,0.14,6.4,14.6,"17:14:32",1
"22/04/05","17:30",0.0,20.2,38.5,1013.5,185.2,1.8,4.3,190.5,0.08,5.7,14.8,"17:22:00",1
"22/04/05","17:40",0.0,19.7,40.1,1013.8,175.4,2.1,3.6,198.7,0.05,5.8,14.7,"17:35:44",1
"22/04/05","17:50",0.0,19.4,40.5,1013.8,173.7,1.8,3.3,151.1,0.04,5.7,14.8,"17:49:04",1
"22/04/05","18:00",0.0,18.9,41.8,1013.8,187.7,1.8,3.1,165.7,0.02,5.7,14.9,"17:53:36",1
"22/04/05","18:10",0.0,18.6,42.9,1014.0,181.3,1.6,2.7,212.5,0.01,5.8,14.6,"18:09:44",1
"22/04/05","18:20",0.0,18.4,43.5,1013.8,203.2,2.0,3.1,224.9,0.00,5.8,14.6,"18:19:20",1
"22/04/05","18:30",0.0,18.1,46.1,1014.0,212.6,1.6,3.3,237.3,0.00,6.4,14.6,"18:20:40",1
"22/04/05","18:40",0.0,17.8,49.4,1014.0,257.0,1.2,2.6,323.5,0.00,7.1,14.7,"18:38:08",1
"22/04/05","18:50",0.0,17.1,53.2,1014.2,297.5,1.8,2.4,313.8,0.00,7.5,14.7,"18:44:40",1
"22/04/05","19:00",0.0,16.3,55.9,1014.0,294.3,1.7,2.8,311.1,0.00,7.5,14.6,"18:59:12",1
"22/04/05","19:10",0.0,16.0,57.3,1014.2,318.9,2.7,4.1,332.2,0.00,7.6,14.6,"19:08:08",1
"22/04/05","19:20",0.0,15.7,58.8,1014.2,327.0,2.5,4.4,335.5,0.00,7.7,14.3,"19:10:24",1
"22/04/05","19:30",0.0,15.3,59.7,1014.5,309.4,1.5,2.6,320.2,0.00,7.6,14.6,"19:21:36",1
"22/04/05","19:40",0.0,15.1,60.8,1014.7,331.6,2.2,3.5,336.7,0.00,7.6,14.5,"19:35:14",1
"22/04/05","19:50",0.0,14.5,62.5,1014.7,335.6,1.7,2.7,345.3,0.00,7.5,14.3,"19:48:54",1
"22/04/05","20:00",0.0,14.5,62.5,1014.7,335.4,2.1,2.9,326.4,0.00,7.5,14.4,"19:54:32",1
"22/04/05","20:10",0.0,14.4,63.0,1014.7,329.1,1.7,2.7,327.4,0.00,7.5,14.2,"20:09:32",1
"22/04/05","20:20",0.0,14.0,63.8,1014.7,303.1,1.8,2.9,314.6,0.00,7.3,14.1,"20:11:12",1
"22/04/05","20:30",0.0,13.8,64.7,1015.2,305.3,2.1,2.8,302.4,0.00,7.3,14.2,"20:24:52",1
"22/04/05","20:40",0.0,13.4,65.2,1015.2,315.2,1.3,2.8,319.8,0.00,7.0,14.2,"20:31:16",1
"22/04/05","20:50",0.0,13.1,66.0,1015.6,277.4,1.1,2.0,289.5,0.00,6.9,14.3,"20:48:22",1
"22/04/05","21:00",0.0,13.0,66.6,1015.4,290.0,1.6,2.1,306.0,0.00,7.0,14.3,"20:55:42",1
"22/04/05","21:10",0.0,12.8,66.8,1015.6,300.4,1.8,2.4,312.8,0.00,6.8,14.1,"21:00:58",1
"22/04/05","21:20",0.0,12.8,66.9,1015.9,318.4,2.0,2.9,339.8,0.00,6.8,13.9,"21:11:16",1
"22/04/05","21:30",0.0,12.8,66.9,1015.9,302.3,2.1,3.2,312.2,0.00,6.8,13.9,"21:28:12",1
"22/04/05","21:40",0.0,12.6,67.4,1015.9,306.5,1.7,2.2,305.1,0.00,6.8,13.9,"21:33:44",1
"22/04/05","21:50",0.0,12.3,67.8,1016.1,287.2,1.6,2.0,302.3,0.00,6.6,13.9,"21:40:34",1
"22/04/05","22:00",0.0,12.3,68.1,1016.1,300.8,1.8,2.5,307.8,0.00,6.6,13.8,"21:59:24",1
"22/04/05","22:10",0.0,12.3,68.2,1016.1,312.7,2.5,3.4,320.1,0.00,6.7,13.7,"22:04:18",1
"22/04/05","22:20",0.0,12.2,68.4,1015.9,317.8,2.0,2.7,313.3,0.00,6.6,13.7,"22:15:06",1
"22/04/05","22:30",0.0,11.8,69.1,1016.4,295.6,2.0,3.1,306.4,0.00,6.4,13.6,"22:28:24",1
"22/04/05","22:40",0.0,11.8,69.2,1016.1,322.9,2.3,3.3,336.0,0.00,6.4,13.6,"22:35:16",1
"22/04/05","22:50",0.0,11.6,69.8,1015.9,318.7,1.6,2.1,319.6,0.00,6.3,13.6,"22:47:50",1
"22/04/05","23:00",0.0,11.4,70.2,1015.9,306.8,1.6,2.9,313.3,0.00,6.2,13.5,"22:54:48",1
"22/04/05","23:10",0.0,11.3,70.6,1016.6,287.6,1.7,2.5,301.7,0.00,6.2,13.5,"23:07:06",1
"22/04/05","23:20",0.0,11.1,71.0,1016.6,295.4,1.8,2.9,319.2,0.00,6.1,13.5,"23:19:52",1
"22/04/05","23:30",0.0,11.1,71.0,1016.1,297.7,1.8,2.5,313.1,0.00,6.1,13.4,"23:20:16",1
"22/04/05","23:40",0.0,10.9,71.1,1016.4,294.9,1.5,1.9,308.7,0.00,5.9,13.4,"23:34:24",1
"22/04/05","23:50",0.0,10.9,71.5,1016.6,301.8,2.0,3.2,316.7,0.00,6.0,13.3,"23:49:12",1
"22/04/05","24:00",0.0,10.7,71.7,1016.4,311.0,2.0,2.8,318.4,0.00,5.8,13.1,"23:53:04",1
